Location: Milton Keynes
(52.0316°N, 0.7531°W)
Time: 23:36:09
(UTC+01:00)

N. Korean satellite - Pass Details

Date: 23 January 2019
Orbit: 457 x 508 km, 97.2° (Epoch: 18 April)

Event Time Altitude Azimuth Distance (km) Brightness Sun altitude
Rises 05:11:48 0° 29° (NNE) 2,627 10.7 -24.9°
Reaches altitude 10° 05:14:48 10° 56° (NE) 1,727 10.1 -24.4°
Maximum altitude 05:16:47 14° 88° (E) 1,488 10.0 -24.1°
Drops below altitude 10° 05:18:46 10° 121° (ESE) 1,707 10.1 -23.8°
Sets 05:21:41 0° 147° (SSE) 2,572 10.7 -23.3°
